Back to catalog

STARLINK-38219

AliveCommunicationsSSO
NORAD 100215·PAYLOAD·🇺🇸 United States

Launched Aug 4, 2026 from Vandenberg Space Force Base

Loading…

Next Passes (next 24 hours)

TLE

FreshSource: Space-Track

Epoch: Sep 14, 2026, 15:12 UTC

1 A0215U 26177C   26257.63351159  .00031013  00000-0  57104-3 0  9994
2 A0215  97.2836 308.3932 0001416  91.3437 268.7977 15.49119150  7584

Track STARLINK-38219 in real time with AllMySat

Download on the App Store